owner,sensor,date,latitude,longitude,vertical_datum,direction_of_sea_water_velocity,sea_water_speed,upward_sea_water_velocity,qcFlag 
TABS,ioos:station:wmo:42049:1,2016-07-01T00:00:00Z,28.3507,-96.0058,2.0,339.0055923,24.00350183,-99999.0,'11111222,11111222,99999999' 
TABS,ioos:station:wmo:42049:1,2016-07-01T00:30:00Z,28.3507,-96.0058,2.0,334.995961,22.00212717,-99999.0,'11111222,11111222,99999999' 
TABS,ioos:station:wmo:42049:1,2016-07-01T01:00:00Z,28.3507,-96.0058,2.0,339.0055923,24.00350183,-99999.0,'11111222,11111222,99999999' 
TABS,ioos:station:wmo:42049:1,2016-07-01T01:30:00Z,28.3507,-96.0058,2.0,338.9995501,19.0022025,-99999.0,'11111222,11111222,99999999' 
TABS,ioos:station:wmo:42049:1,2016-07-01T02:00:00Z,28.3507,-96.0058,2.0,323.9897693,20.00224987,-99999.0,'11111222,11111222,99999999' 
TABS,ioos:station:wmo:42049:1,2016-07-01T02:30:00Z,28.3507,-96.0058,2.0,341.0052156,21.99785444,-99999.0,'11111222,11111222,99999999' 
TABS,ioos:station:wmo:42049:1,2016-07-01T03:00:00Z,28.3507,-96.0058,2.0,351.0057605,29.99888331,-99999.0,'11111222,11111222,99999999' 
TABS,ioos:station:wmo:42049:1,2016-07-01T03:30:00Z,28.3507,-96.0058,2.0,0.000210459,31.0,-99999.0,'11111222,11111222,99999999' 
TABS,ioos:station:wmo:42049:1,2016-07-01T04:00:00Z,28.3507,-96.0058,2.0,357.0004789,30.00110831,-99999.0,'11111222,11111222,99999999' 
TABS,ioos:station:wmo:42049:1,2016-07-01T04:30:00Z,28.3507,-96.0058,2.0,0.000210459,31.0,-99999.0,'11111222,11111222,99999999' 
TABS,ioos:station:wmo:42049:1,2016-07-01T05:00:00Z,28.3507,-96.0058,2.0,4.995789867,24.0011708,-99999.0,'11111222,11111222,99999999' 
TABS,ioos:station:wmo:42049:1,2016-07-01T06:00:00Z,28.3507,-96.0058,2.0,357.0090719,32.00360136,-99999.0,'11111222,11111222,99999999' 
TABS,ioos:station:wmo:42049:1,2016-07-01T06:30:00Z,28.3507,-96.0058,2.0,0.000210459,30.0,-99999.0,'11111222,11111222,99999999' 
TABS,ioos:station:wmo:42049:1,2016-07-01T07:00:00Z,28.3507,-96.0058,2.0,6.007203354,30.00475296,-99999.0,'11111222,11111222,99999999' 
TABS,ioos:station:wmo:42049:1,2016-07-01T07:30:00Z,28.3507,-96.0058,2.0,5.005025688,29.00056896,-99999.0,'11111222,11111222,99999999' 
TABS,ioos:station:wmo:42049:1,2016-07-01T08:00:00Z,28.3507,-96.0058,2.0,357.0004789,30.00110831,-99999.0,'11111222,11111222,99999999' 
TABS,ioos:station:wmo:42049:1,2016-07-01T08:30:00Z,28.3507,-96.0058,2.0,4.992916644,27.00245359,-99999.0,'11111222,11111222,99999999' 
TABS,ioos:station:wmo:42049:1,2016-07-01T09:00:00Z,28.3507,-96.0058,2.0,12.00689069,24.9968498,-99999.0,'11111222,11111222,99999999' 
TABS,ioos:station:wmo:42049:1,2016-07-01T09:30:00Z,28.3507,-96.0058,2.0,20.99653091,22.99692371,-99999.0,'11111222,11111222,99999999' 
TABS,ioos:station:wmo:42049:1,2016-07-01T10:00:00Z,28.3507,-96.0058,2.0,23.00613681,24.99825994,-99999.0,'11111222,11111222,99999999' 
TABS,ioos:station:wmo:42049:1,2016-07-01T10:30:00Z,28.3507,-96.0058,2.0,24.0014353,20.99533281,-99999.0,'11111222,11111222,99999999' 
TABS,ioos:station:wmo:42049:1,2016-07-01T11:00:00Z,28.3507,-96.0058,2.0,34.99736606,17.99360998,-99999.0,'11111222,11111222,99999999' 
TABS,ioos:station:wmo:42049:1,2016-07-01T11:30:00Z,28.3507,-96.0058,2.0,45.00010523,16.99884702,-99999.0,'11111222,11111222,99999999' 
TABS,ioos:station:wmo:42049:1,2016-07-01T12:00:00Z,28.3507,-96.0058,2.0,50.99288056,16.99982647,-99999.0,'11111222,11111222,99999999' 
TABS,ioos:station:wmo:42049:1,2016-07-01T12:30:00Z,28.3507,-96.0058,2.0,65.00480072,15.99836242,-99999.0,'11111222,11111222,99999999' 
TABS,ioos:station:wmo:42049:1,2016-07-01T13:00:00Z,28.3507,-96.0058,2.0,66.01678819,13.9985785,-99999.0,'11111222,11111222,99999999' 
TABS,ioos:station:wmo:42049:1,2016-07-01T13:30:00Z,28.3507,-96.0058,2.0,72.00798926,9.00011111,-99999.0,'11133222,11111222,99999999' 
TABS,ioos:station:wmo:42049:1,2016-07-01T14:00:00Z,28.3507,-96.0058,2.0,58.95987805,8.99853877,-99999.0,'11133222,11111222,99999999' 
TABS,ioos:station:wmo:42049:1,2016-07-01T14:30:00Z,28.3507,-96.0058,2.0,67.98594402,8.003524224,-99999.0,'11133222,11111222,99999999' 
TABS,ioos:station:wmo:42049:1,2016-07-01T15:00:00Z,28.3507,-96.0058,2.0,72.04808091,6.002216257,-99999.0,'11133222,11111222,99999999' 
TABS,ioos:station:wmo:42049:1,2016-07-01T15:30:00Z,28.3507,-96.0058,2.0,77.0054136,4.002499219,-99999.0,'11133222,11111222,99999999' 
TABS,ioos:station:wmo:42049:1,2016-07-01T16:00:00Z,28.3507,-96.0058,2.0,99.04497546,6.997006503,-99999.0,'11133222,11111222,99999999' 
TABS,ioos:station:wmo:42049:1,2016-07-01T19:00:00Z,28.3507,-96.0058,2.0,237.6522112,7.102112362,-99999.0,'11133222,11111222,99999999' 
TABS,ioos:station:wmo:42049:1,2016-07-01T19:30:00Z,28.3507,-96.0058,2.0,254.6365496,8.379427188,-99999.0,'11133222,11111222,99999999' 
TABS,ioos:station:wmo:42049:1,2016-07-01T20:00:00Z,28.3507,-96.0058,2.0,259.2763702,10.53394988,-99999.0,'11111222,11111222,99999999' 
TABS,ioos:station:wmo:42049:1,2016-07-01T20:30:00Z,28.3507,-96.0058,2.0,259.4997696,14.98084777,-99999.0,'11111222,11111222,99999999' 
TABS,ioos:station:wmo:42049:1,2016-07-01T21:00:00Z,28.3507,-96.0058,2.0,280.8273592,12.56364597,-99999.0,'11111222,11111222,99999999' 
TABS,ioos:station:wmo:42049:1,2016-07-01T21:30:00Z,28.3507,-96.0058,2.0,304.0596432,12.48101358,-99999.0,'11111222,11111222,99999999' 
TABS,ioos:station:wmo:42049:1,2016-07-01T22:00:00Z,28.3507,-96.0058,2.0,295.4672848,13.76776307,-99999.0,'11111222,11111222,99999999' 
TABS,ioos:station:wmo:42049:1,2016-07-01T22:30:00Z,28.3507,-96.0058,2.0,299.7996962,16.96299797,-99999.0,'11111222,11111222,99999999' 
TABS,ioos:station:wmo:42049:1,2016-07-01T23:00:00Z,28.3507,-96.0058,2.0,318.027337,17.94312124,-99999.0,'11111222,11111222,99999999' 
TABS,ioos:station:wmo:42049:1,2016-07-01T23:30:00Z,28.3507,-96.0058,2.0,324.11345,20.98308843,-99999.0,'11111222,11111222,99999999' 
TABS,ioos:station:wmo:42049:1,2016-07-02T00:00:00Z,28.3507,-96.0058,2.0,324.893515,26.58658684,-99999.0,'11111222,11111222,99999999' 
TABS,ioos:station:wmo:42049:1,2016-07-02T00:30:00Z,28.3507,-96.0058,2.0,330.5357467,28.64492451,-99999.0,'11111222,11111222,99999999' 
TABS,ioos:station:wmo:42049:1,2016-07-02T01:00:00Z,28.3507,-96.0058,2.0,335.6298181,27.09418388,-99999.0,'11111222,11111222,99999999' 
TABS,ioos:station:wmo:42049:1,2016-07-02T01:30:00Z,28.3507,-96.0058,2.0,330.3968773,21.59947453,-99999.0,'11111222,11111222,99999999' 
TABS,ioos:station:wmo:42049:1,2016-07-02T02:00:00Z,28.3507,-96.0058,2.0,330.5289436,28.57792855,-99999.0,'11111222,11111222,99999999' 
TABS,ioos:station:wmo:42049:1,2016-07-02T02:30:00Z,28.3507,-96.0058,2.0,346.228832,28.85962231,-99999.0,'11111222,11111222,99999999' 
TABS,ioos:station:wmo:42049:1,2016-07-02T03:00:00Z,28.3507,-96.0058,2.0,343.4281345,27.62760938,-99999.0,'11111222,11111222,99999999' 
TABS,ioos:station:wmo:42049:1,2016-07-02T03:30:00Z,28.3507,-96.0058,2.0,344.6915536,31.89159764,-99999.0,'11111222,11111222,99999999' 
TABS,ioos:station:wmo:42049:1,2016-07-02T04:00:00Z,28.3507,-96.0058,2.0,346.1984459,33.78549541,-99999.0,'11111222,11111222,99999999' 
TABS,ioos:station:wmo:42049:1,2016-07-02T04:30:00Z,28.3507,-96.0058,2.0,347.5511097,33.53856586,-99999.0,'11111222,11111222,99999999' 
TABS,ioos:station:wmo:42049:1,2016-07-02T05:00:00Z,28.3507,-96.0058,2.0,346.8006579,32.05692593,-99999.0,'11111222,11111222,99999999' 
TABS,ioos:station:wmo:42049:1,2016-07-02T05:30:00Z,28.3507,-96.0058,2.0,351.2514289,33.00401188,-99999.0,'11111222,11111222,99999999' 
TABS,ioos:station:wmo:42049:1,2016-07-02T06:00:00Z,28.3507,-96.0058,2.0,354.3489347,28.84017337,-99999.0,'11111222,11111222,99999999' 
TABS,ioos:station:wmo:42049:1,2016-07-02T06:30:00Z,28.3507,-96.0058,2.0,356.6507457,27.72736554,-99999.0,'11111222,11111222,99999999' 
TABS,ioos:station:wmo:42049:1,2016-07-02T07:00:00Z,28.3507,-96.0058,2.0,5.116822779,24.66829747,-99999.0,'11111222,11111222,99999999' 
TABS,ioos:station:wmo:42049:1,2016-07-02T07:30:00Z,28.3507,-96.0058,2.0,9.088651562,24.94314535,-99999.0,'11111222,11111222,99999999' 
TABS,ioos:station:wmo:42049:1,2016-07-02T08:00:00Z,28.3507,-96.0058,2.0,13.51921105,23.91256155,-99999.0,'11111222,11111222,99999999' 
TABS,ioos:station:wmo:42049:1,2016-07-02T08:30:00Z,28.3507,-96.0058,2.0,15.47881243,24.28065897,-99999.0,'11111222,11111222,99999999' 
TABS,ioos:station:wmo:42049:1,2016-07-02T09:00:00Z,28.3507,-96.0058,2.0,20.32767498,18.19302064,-99999.0,'11111222,11111222,99999999' 
TABS,ioos:station:wmo:42049:1,2016-07-02T09:30:00Z,28.3507,-96.0058,2.0,27.75732193,19.56088444,-99999.0,'11111222,11111222,99999999' 
TABS,ioos:station:wmo:42049:1,2016-07-02T10:00:00Z,28.3507,-96.0058,2.0,39.95367517,17.84583985,-99999.0,'11111222,11111222,99999999' 
TABS,ioos:station:wmo:42049:1,2016-07-02T10:30:00Z,28.3507,-96.0058,2.0,44.88284046,17.27465484,-99999.0,'11111222,11111222,99999999' 
TABS,ioos:station:wmo:42049:1,2016-07-02T11:00:00Z,28.3507,-96.0058,2.0,46.8203816,16.25044307,-99999.0,'11111222,11111222,99999999' 
TABS,ioos:station:wmo:42049:1,2016-07-02T11:30:00Z,28.3507,-96.0058,2.0,61.85981449,17.40765923,-99999.0,'11111222,11111222,99999999' 
TABS,ioos:station:wmo:42049:1,2016-07-02T12:00:00Z,28.3507,-96.0058,2.0,70.90076836,18.00089442,-99999.0,'11111222,11111222,99999999' 
TABS,ioos:station:wmo:42049:1,2016-07-02T12:30:00Z,28.3507,-96.0058,2.0,82.19941969,18.93521851,-99999.0,'11111222,11111222,99999999' 
TABS,ioos:station:wmo:42049:1,2016-07-02T13:00:00Z,28.3507,-96.0058,2.0,95.96128997,42.75118712,-99999.0,'11111222,11111222,99999999' 
TABS,ioos:station:wmo:42049:1,2016-07-02T13:30:00Z,28.3507,-96.0058,2.0,104.8227571,39.75290933,-99999.0,'11111222,11111222,99999999' 
TABS,ioos:station:wmo:42049:1,2016-07-02T14:00:00Z,28.3507,-96.0058,2.0,120.0308913,36.76559397,-99999.0,'11111222,11111222,99999999' 
TABS,ioos:station:wmo:42049:1,2016-07-02T14:30:00Z,28.3507,-96.0058,2.0,120.4019011,36.55668065,-99999.0,'11111222,11111222,99999999' 
TABS,ioos:station:wmo:42049:1,2016-07-02T15:00:00Z,28.3507,-96.0058,2.0,108.7465595,33.13799783,-99999.0,'11111222,11111222,99999999' 
TABS,ioos:station:wmo:42049:1,2016-07-02T15:30:00Z,28.3507,-96.0058,2.0,110.4698229,32.68377732,-99999.0,'11111222,11111222,99999999' 
TABS,ioos:station:wmo:42049:1,2016-07-02T16:00:00Z,28.3507,-96.0058,2.0,111.4470935,32.13519255,-99999.0,'11111222,11111222,99999999' 
TABS,ioos:station:wmo:42049:1,2016-07-02T16:30:00Z,28.3507,-96.0058,2.0,111.7169969,30.26837293,-99999.0,'11111222,11111222,99999999' 
TABS,ioos:station:wmo:42049:1,2016-07-02T17:00:00Z,28.3507,-96.0058,2.0,105.8145202,33.68501893,-99999.0,'11111222,11111222,99999999' 
TABS,ioos:station:wmo:42049:1,2016-07-02T17:30:00Z,28.3507,-96.0058,2.0,122.8424365,31.12485984,-99999.0,'11111222,11111222,99999999' 
TABS,ioos:station:wmo:42049:1,2016-07-02T18:00:00Z,28.3507,-96.0058,2.0,121.2085649,28.89091553,-99999.0,'11111222,11111222,99999999' 
TABS,ioos:station:wmo:42049:1,2016-07-02T18:30:00Z,28.3507,-96.0058,2.0,131.9950869,26.70878882,-99999.0,'11111222,11111222,99999999' 
TABS,ioos:station:wmo:42049:1,2016-07-02T19:00:00Z,28.3507,-96.0058,2.0,134.1274397,20.89742807,-99999.0,'11111222,11111222,99999999' 
TABS,ioos:station:wmo:42049:1,2016-07-02T19:30:00Z,28.3507,-96.0058,2.0,124.5178154,15.74126107,-99999.0,'11111222,11111222,99999999' 
TABS,ioos:station:wmo:42049:1,2016-07-02T20:00:00Z,28.3507,-96.0058,2.0,123.9280991,16.01710648,-99999.0,'11111222,11111222,99999999' 
TABS,ioos:station:wmo:42049:1,2016-07-02T20:30:00Z,28.3507,-96.0058,2.0,108.7263358,15.54279576,-99999.0,'11111222,11111222,99999999' 
TABS,ioos:station:wmo:42049:1,2016-07-02T21:00:00Z,28.3507,-96.0058,2.0,105.5125218,13.27353005,-99999.0,'11111222,11111222,99999999' 
TABS,ioos:station:wmo:42049:1,2016-07-02T21:30:00Z,28.3507,-96.0058,2.0,95.51815486,15.70277046,-99999.0,'11111222,11111222,99999999' 
TABS,ioos:station:wmo:42049:1,2016-07-02T22:00:00Z,28.3507,-96.0058,2.0,99.88992477,13.21640269,-99999.0,'11111222,11111222,99999999' 
TABS,ioos:station:wmo:42049:1,2016-07-02T22:30:00Z,28.3507,-96.0058,2.0,85.37284832,11.15636141,-99999.0,'11111222,11111222,99999999' 
TABS,ioos:station:wmo:42049:1,2016-07-02T23:00:00Z,28.3507,-96.0058,2.0,80.4532554,6.692690042,-99999.0,'11133222,11111222,99999999' 
TABS,ioos:station:wmo:42049:1,2016-07-02T23:30:00Z,28.3507,-96.0058,2.0,56.90021641,7.269731769,-99999.0,'11133222,11111222,99999999' 
TABS,ioos:station:wmo:42049:1,2016-07-03T00:00:00Z,28.3507,-96.0058,2.0,34.61983244,10.08577711,-99999.0,'11111222,11111222,99999999' 
TABS,ioos:station:wmo:42049:1,2016-07-03T00:30:00Z,28.3507,-96.0058,2.0,41.9170384,13.93603243,-99999.0,'11111222,11111222,99999999' 
TABS,ioos:station:wmo:42049:1,2016-07-03T01:00:00Z,28.3507,-96.0058,2.0,43.15858776,17.16327475,-99999.0,'11111222,11111222,99999999' 
TABS,ioos:station:wmo:42049:1,2016-07-03T01:30:00Z,28.3507,-96.0058,2.0,38.83753656,18.64098978,-99999.0,'11111222,11111222,99999999' 
TABS,ioos:station:wmo:42049:1,2016-07-03T02:00:00Z,28.3507,-96.0058,2.0,27.68892322,23.71582594,-99999.0,'11111222,11111222,99999999' 
TABS,ioos:station:wmo:42049:1,2016-07-03T02:30:00Z,28.3507,-96.0058,2.0,33.87823639,31.26861845,-99999.0,'11111222,11111222,99999999' 
TABS,ioos:station:wmo:42049:1,2016-07-03T03:00:00Z,28.3507,-96.0058,2.0,34.8150535,32.07062519,-99999.0,'11111222,11111222,99999999' 
TABS,ioos:station:wmo:42049:1,2016-07-03T03:30:00Z,28.3507,-96.0058,2.0,34.65418742,37.91635135,-99999.0,'11111222,11111222,99999999' 
TABS,ioos:station:wmo:42049:1,2016-07-03T04:00:00Z,28.3507,-96.0058,2.0,34.40176078,39.75288166,-99999.0,'11111222,11111222,99999999' 
TABS,ioos:station:wmo:42049:1,2016-07-03T04:30:00Z,28.3507,-96.0058,2.0,34.78539052,42.22594582,-99999.0,'11111222,11111222,99999999' 
TABS,ioos:station:wmo:42049:1,2016-07-03T05:00:00Z,28.3507,-96.0058,2.0,38.58611393,40.00394231,-99999.0,'11111222,11111222,99999999' 
TABS,ioos:station:wmo:42049:1,2016-07-03T05:30:00Z,28.3507,-96.0058,2.0,35.50299889,44.01252663,-99999.0,'11111222,11111222,99999999' 
TABS,ioos:station:wmo:42049:1,2016-07-03T06:00:00Z,28.3507,-96.0058,2.0,38.61595622,46.80372848,-99999.0,'11111222,11111222,99999999' 
TABS,ioos:station:wmo:42049:1,2016-07-03T06:30:00Z,28.3507,-96.0058,2.0,40.50729485,48.20309741,-99999.0,'11111222,11111222,99999999' 
TABS,ioos:station:wmo:42049:1,2016-07-03T07:00:00Z,28.3507,-96.0058,2.0,42.20696484,44.40248867,-99999.0,'11111222,11111222,99999999' 
TABS,ioos:station:wmo:42049:1,2016-07-03T07:30:00Z,28.3507,-96.0058,2.0,49.47469546,47.4926268,-99999.0,'11111222,11111222,99999999' 
TABS,ioos:station:wmo:42049:1,2016-07-03T08:00:00Z,28.3507,-96.0058,2.0,56.70203147,47.83291754,-99999.0,'11111222,11111222,99999999' 
TABS,ioos:station:wmo:42049:1,2016-07-03T08:30:00Z,28.3507,-96.0058,2.0,57.78029603,49.2902465,-99999.0,'11111222,11111222,99999999' 
TABS,ioos:station:wmo:42049:1,2016-07-03T09:00:00Z,28.3507,-96.0058,2.0,59.50759728,49.62307931,-99999.0,'11111222,11111222,99999999' 
TABS,ioos:station:wmo:42049:1,2016-07-03T09:30:00Z,28.3507,-96.0058,2.0,61.11818363,51.55220267,-99999.0,'11111222,11111222,99999999' 
TABS,ioos:station:wmo:42049:1,2016-07-03T10:00:00Z,28.3507,-96.0058,2.0,65.12452577,51.4206126,-99999.0,'11111222,11111222,99999999' 
TABS,ioos:station:wmo:42049:1,2016-07-03T10:30:00Z,28.3507,-96.0058,2.0,63.78136165,54.00650053,-99999.0,'11111222,11111222,99999999' 
TABS,ioos:station:wmo:42049:1,2016-07-03T11:00:00Z,28.3507,-96.0058,2.0,62.65207617,46.47430365,-99999.0,'11111222,11111222,99999999' 
TABS,ioos:station:wmo:42049:1,2016-07-03T11:30:00Z,28.3507,-96.0058,2.0,64.63464471,53.82948263,-99999.0,'11111222,11111222,99999999' 
TABS,ioos:station:wmo:42049:1,2016-07-03T12:00:00Z,28.3507,-96.0058,2.0,69.75622106,55.1997654,-99999.0,'11111222,11111222,99999999' 
TABS,ioos:station:wmo:42049:1,2016-07-03T12:30:00Z,28.3507,-96.0058,2.0,70.65869215,57.97180349,-99999.0,'11111222,11111222,99999999' 
TABS,ioos:station:wmo:42049:1,2016-07-03T13:00:00Z,28.3507,-96.0058,2.0,78.34360881,55.7803711,-99999.0,'11111222,11111222,99999999' 
TABS,ioos:station:wmo:42049:1,2016-07-03T13:30:00Z,28.3507,-96.0058,2.0,82.97923727,53.17874011,-99999.0,'11111222,11111222,99999999' 
TABS,ioos:station:wmo:42049:1,2016-07-03T14:00:00Z,28.3507,-96.0058,2.0,83.67755932,49.94376438,-99999.0,'11111222,11111222,99999999' 
TABS,ioos:station:wmo:42049:1,2016-07-03T14:30:00Z,28.3507,-96.0058,2.0,81.18221001,45.59894407,-99999.0,'11111222,11111222,99999999' 
TABS,ioos:station:wmo:42049:1,2016-07-03T15:00:00Z,28.3507,-96.0058,2.0,69.34840166,48.40009298,-99999.0,'11111222,11111222,99999999' 
TABS,ioos:station:wmo:42049:1,2016-07-03T15:30:00Z,28.3507,-96.0058,2.0,74.90526367,48.57604862,-99999.0,'11111222,11111222,99999999' 
TABS,ioos:station:wmo:42049:1,2016-07-03T16:00:00Z,28.3507,-96.0058,2.0,68.97781248,48.47653659,-99999.0,'11111222,11111222,99999999' 
TABS,ioos:station:wmo:42049:1,2016-07-03T16:30:00Z,28.3507,-96.0058,2.0,77.76820644,48.75686003,-99999.0,'11111222,11111222,99999999' 
TABS,ioos:station:wmo:42049:1,2016-07-03T17:00:00Z,28.3507,-96.0058,2.0,77.42420229,35.68615698,-99999.0,'11111222,11111222,99999999' 
TABS,ioos:station:wmo:42049:1,2016-07-03T17:30:00Z,28.3507,-96.0058,2.0,75.28737976,50.9505839,-99999.0,'11111222,11111222,99999999' 
TABS,ioos:station:wmo:42049:1,2016-07-03T18:00:00Z,28.3507,-96.0058,2.0,80.26881759,44.49014385,-99999.0,'11111222,11111222,99999999' 
TABS,ioos:station:wmo:42049:1,2016-07-03T18:30:00Z,28.3507,-96.0058,2.0,86.14108643,48.43982349,-99999.0,'11111222,11111222,99999999' 
TABS,ioos:station:wmo:42049:1,2016-07-03T19:00:00Z,28.3507,-96.0058,2.0,83.75908343,45.25822025,-99999.0,'11111222,11111222,99999999' 
TABS,ioos:station:wmo:42049:1,2016-07-03T19:30:00Z,28.3507,-96.0058,2.0,81.76588636,45.1757125,-99999.0,'11111222,11111222,99999999' 
TABS,ioos:station:wmo:42049:1,2016-07-03T20:00:00Z,28.3507,-96.0058,2.0,82.53076626,44.38663087,-99999.0,'11111222,11111222,99999999' 
TABS,ioos:station:wmo:42049:1,2016-07-03T20:30:00Z,28.3507,-96.0058,2.0,76.44966043,46.90565105,-99999.0,'11111222,11111222,99999999' 
TABS,ioos:station:wmo:42049:1,2016-07-03T21:00:00Z,28.3507,-96.0058,2.0,77.2664032,42.78221359,-99999.0,'11111222,11111222,99999999' 
TABS,ioos:station:wmo:42049:1,2016-07-03T21:30:00Z,28.3507,-96.0058,2.0,81.50160402,45.54003184,-99999.0,'11111222,11111222,99999999' 
TABS,ioos:station:wmo:42049:1,2016-07-03T22:00:00Z,28.3507,-96.0058,2.0,73.27089915,45.89233705,-99999.0,'11111222,11111222,99999999' 
TABS,ioos:station:wmo:42049:1,2016-07-03T22:30:00Z,28.3507,-96.0058,2.0,73.20719667,48.66530283,-99999.0,'11111222,11111222,99999999' 
TABS,ioos:station:wmo:42049:1,2016-07-03T23:00:00Z,28.3507,-96.0058,2.0,84.06656989,42.46751347,-99999.0,'11111222,11111222,99999999' 
TABS,ioos:station:wmo:42049:1,2016-07-03T23:30:00Z,28.3507,-96.0058,2.0,77.81389067,53.86371135,-99999.0,'11111222,11111222,99999999' 
TABS,ioos:station:wmo:42049:1,2016-07-04T00:00:00Z,28.3507,-96.0058,2.0,78.10688166,52.59911121,-99999.0,'11111222,11111222,99999999' 
TABS,ioos:station:wmo:42049:1,2016-07-04T00:30:00Z,28.3507,-96.0058,2.0,78.13755358,54.09526782,-99999.0,'11111222,11111222,99999999' 
TABS,ioos:station:wmo:42049:1,2016-07-04T01:00:00Z,28.3507,-96.0058,2.0,70.43245892,56.31219406,-99999.0,'11111222,11111222,99999999' 
TABS,ioos:station:wmo:42049:1,2016-07-04T01:30:00Z,28.3507,-96.0058,2.0,74.42323403,42.49062249,-99999.0,'11111222,11111222,99999999' 
TABS,ioos:station:wmo:42049:1,2016-07-04T02:00:00Z,28.3507,-96.0058,2.0,70.29074282,48.62888442,-99999.0,'11111222,11111222,99999999' 
TABS,ioos:station:wmo:42049:1,2016-07-04T02:30:00Z,28.3507,-96.0058,2.0,73.23300746,50.19396378,-99999.0,'11111222,11111222,99999999' 
TABS,ioos:station:wmo:42049:1,2016-07-04T03:00:00Z,28.3507,-96.0058,2.0,67.92572464,49.12068811,-99999.0,'11111222,11111222,99999999' 
TABS,ioos:station:wmo:42049:1,2016-07-04T03:30:00Z,28.3507,-96.0058,2.0,63.0122665,50.30842673,-99999.0,'11111222,11111222,99999999' 
TABS,ioos:station:wmo:42049:1,2016-07-04T04:00:00Z,28.3507,-96.0058,2.0,57.6377644,48.83504991,-99999.0,'11111222,11111222,99999999' 
TABS,ioos:station:wmo:42049:1,2016-07-04T04:30:00Z,28.3507,-96.0058,2.0,60.07087314,45.49741641,-99999.0,'11111222,11111222,99999999' 
TABS,ioos:station:wmo:42049:1,2016-07-04T05:00:00Z,28.3507,-96.0058,2.0,54.19951507,49.40460404,-99999.0,'11111222,11111222,99999999' 
TABS,ioos:station:wmo:42049:1,2016-07-04T05:30:00Z,28.3507,-96.0058,2.0,52.18122416,47.45850925,-99999.0,'11111222,11111222,99999999' 
TABS,ioos:station:wmo:42049:1,2016-07-04T06:00:00Z,28.3507,-96.0058,2.0,49.07578387,52.33096598,-99999.0,'11111222,11111222,99999999' 
TABS,ioos:station:wmo:42049:1,2016-07-04T06:30:00Z,28.3507,-96.0058,2.0,51.78414292,56.44757656,-99999.0,'11111222,11111222,99999999' 
TABS,ioos:station:wmo:42049:1,2016-07-04T07:00:00Z,28.3507,-96.0058,2.0,48.44781686,58.55542673,-99999.0,'11111222,11111222,99999999' 
TABS,ioos:station:wmo:42049:1,2016-07-04T07:30:00Z,28.3507,-96.0058,2.0,47.62510135,58.20646785,-99999.0,'11111222,11111222,99999999' 
TABS,ioos:station:wmo:42049:1,2016-07-04T08:00:00Z,28.3507,-96.0058,2.0,46.08002708,61.15438578,-99999.0,'11111222,11111222,99999999' 
TABS,ioos:station:wmo:42049:1,2016-07-04T08:30:00Z,28.3507,-96.0058,2.0,45.5235776,61.91685393,-99999.0,'11111222,11111222,99999999' 
TABS,ioos:station:wmo:42049:1,2016-07-04T09:00:00Z,28.3507,-96.0058,2.0,43.07014586,58.36942008,-99999.0,'11111222,11111222,99999999' 
TABS,ioos:station:wmo:42049:1,2016-07-04T09:30:00Z,28.3507,-96.0058,2.0,46.92786505,58.01559101,-99999.0,'11111222,11111222,99999999' 
TABS,ioos:station:wmo:42049:1,2016-07-04T10:00:00Z,28.3507,-96.0058,2.0,49.54115471,58.49873246,-99999.0,'11111222,11111222,99999999' 
TABS,ioos:station:wmo:42049:1,2016-07-04T10:30:00Z,28.3507,-96.0058,2.0,51.58355563,61.05824432,-99999.0,'11111222,11111222,99999999' 
TABS,ioos:station:wmo:42049:1,2016-07-04T11:00:00Z,28.3507,-96.0058,2.0,54.85424072,50.65493066,-99999.0,'11111222,11111222,99999999' 
TABS,ioos:station:wmo:42049:1,2016-07-04T11:30:00Z,28.3507,-96.0058,2.0,48.77479115,47.9043401,-99999.0,'11111222,11111222,99999999' 
TABS,ioos:station:wmo:42049:1,2016-07-04T12:00:00Z,28.3507,-96.0058,2.0,50.41517335,55.52232434,-99999.0,'11111222,11111222,99999999' 
TABS,ioos:station:wmo:42049:1,2016-07-04T12:30:00Z,28.3507,-96.0058,2.0,59.4291837,53.77464551,-99999.0,'11111222,11111222,99999999' 
TABS,ioos:station:wmo:42049:1,2016-07-04T13:00:00Z,28.3507,-96.0058,2.0,59.49527813,51.81138485,-99999.0,'11111222,11111222,99999999' 
TABS,ioos:station:wmo:42049:1,2016-07-04T13:30:00Z,28.3507,-96.0058,2.0,61.67844908,52.08461001,-99999.0,'11111222,11111222,99999999' 
TABS,ioos:station:wmo:42049:1,2016-07-04T14:00:00Z,28.3507,-96.0058,2.0,62.90988466,46.35563612,-99999.0,'11111222,11111222,99999999' 
TABS,ioos:station:wmo:42049:1,2016-07-04T14:30:00Z,28.3507,-96.0058,2.0,63.46736004,47.52539637,-99999.0,'11111222,11111222,99999999' 
TABS,ioos:station:wmo:42049:1,2016-07-04T15:00:00Z,28.3507,-96.0058,2.0,66.78330232,41.42455552,-99999.0,'11111222,11111222,99999999' 
TABS,ioos:station:wmo:42049:1,2016-07-04T15:30:00Z,28.3507,-96.0058,2.0,54.64394099,42.92698103,-99999.0,'11111222,11111222,99999999' 
TABS,ioos:station:wmo:42049:1,2016-07-04T16:00:00Z,28.3507,-96.0058,2.0,64.63459124,43.79180859,-99999.0,'11111222,11111222,99999999' 
TABS,ioos:station:wmo:42049:1,2016-07-04T16:30:00Z,28.3507,-96.0058,2.0,75.93057257,41.83497699,-99999.0,'11111222,11111222,99999999' 
TABS,ioos:station:wmo:42049:1,2016-07-04T17:00:00Z,28.3507,-96.0058,2.0,77.95642965,43.80416875,-99999.0,'11111222,11111222,99999999' 
TABS,ioos:station:wmo:42049:1,2016-07-04T17:30:00Z,28.3507,-96.0058,2.0,73.09428308,44.91085058,-99999.0,'11111222,11111222,99999999' 
TABS,ioos:station:wmo:42049:1,2016-07-04T18:00:00Z,28.3507,-96.0058,2.0,72.85292216,44.60254365,-99999.0,'11111222,11111222,99999999' 
TABS,ioos:station:wmo:42049:1,2016-07-04T18:30:00Z,28.3507,-96.0058,2.0,66.27563461,49.36147992,-99999.0,'11111222,11111222,99999999' 
TABS,ioos:station:wmo:42049:1,2016-07-04T19:00:00Z,28.3507,-96.0058,2.0,66.16346876,45.2825176,-99999.0,'11111222,11111222,99999999' 